Hastings, NE

6:27 AM CST on December 13, 2017 (GMT -0600)
Hastings Municipal

Weather History for KHSI - August, 2013

Change the Weather History Date:

Saturday, August 10, 2013

  Actual Average Record
Temperature  
Mean Temperature 73 °F 76 °F  
Max Temperature 83 °F 86 °F 105 °F (1937)
Min Temperature 63 °F 65 °F 48 °F (1985)
Degree Days  
Heating Degree Days 0 0  
Month to date heating degree days 0 0  
Since 1 June heating degree days 33 22  
Since 1 July heating degree days 6 1  
Cooling Degree Days 8 11  
Month to date cooling degree days 80 113  
Year to date cooling degree days 723 773  
Since 1 June cooling degree days 649 714  
Growing Degree Days 22 (Base 50)    
Moisture  
Dew Point 60 °F    
Average Humidity 70    
Maximum Humidity 93    
Minimum Humidity 47    
Precipitation  
Precipitation 0.00 in 0.09 in 1.40 in (1968)
Month to date precipitation 1.42 0.79  
Year to date precipitation 16.23 18.15  
Snow  
Snow 0.00 in 0.00 in - ()
Month to date snowfall 0.0 0.0  
Since 1 June snowfall 0.0 0.0  
Since 1 July snowfall 0.0 0.0  
Snow Depth 0.00 in    
Sea Level Pressure  
Sea Level Pressure 30.13 in    
Wind  
Wind Speed 7 mph (SSE)    
Max Wind Speed 14 mph    
Max Gust Speed 17 mph    
Visibility 10 miles    
Events      
T = Trace of Precipitation, MM = Missing Value Source: NWS Daily Summary

Daily Weather History Graph

Daily Weather History Graph

Search for Another Location

Airport or City:

Trip Planner

Search our weather history database for the weather conditions in past years. The results will help you decide how hot, cold, wet, or windy it might be!

Date:

Astronomy

Aug. 10, 2013 Rise Set
Actual Time 6:39 AM CDT 8:37 PM CDT
Civil Twilight 6:09 AM CDT 9:07 PM CDT
Nautical Twilight 5:33 AM CDT 9:43 PM CDT
Astronomical Twilight 4:54 AM CDT 10:22 PM CDT
Moon 10:29 AM CDT (8/10) 10:18 PM CDT (8/10)
Length of Visible Light 14h 57m
Length of Day
13h 58m
Waxing Crescent, 14% of the Moon is Illuminated
Aug 10
Waxing Crescent
Aug 14
First Quarter
Aug 20
Full
Aug 28
Last Quarter
Sep 5
New

Hourly Weather History & Observations

Time (CDT) Temp. Heat Index Dew Point Humidity Pressure Visibility Wind Dir Wind Speed Gust Speed Precip Events Conditions
12:53 AM 68.0 °F - 59.0 °F 73% 30.16 in 10.0 mi ESE 6.9 mph - N/A   Clear
1:53 AM 66.0 °F - 57.9 °F 75% 30.15 in 10.0 mi SE 6.9 mph - N/A   Clear
2:53 AM 64.9 °F - 59.0 °F 81% 30.15 in 10.0 mi SE 5.8 mph - N/A   Clear
3:53 AM 64.9 °F - 59.0 °F 81% 30.16 in 10.0 mi SSE 5.8 mph - N/A   Clear
4:53 AM 64.0 °F - 59.0 °F 84% 30.16 in 10.0 mi SSE 6.9 mph - N/A   Clear
5:53 AM 64.0 °F - 59.0 °F 84% 30.15 in 10.0 mi SSE 5.8 mph - N/A   Clear
6:53 AM 63.0 °F - 60.1 °F 90% 30.15 in 9.0 mi SSE 3.5 mph - N/A   Clear
7:53 AM 64.9 °F - 59.0 °F 81% 30.18 in 10.0 mi South 5.8 mph - N/A   Clear
8:53 AM 68.0 °F - 61.0 °F 78% 30.18 in 10.0 mi South 3.5 mph - N/A   Clear
9:53 AM 72.0 °F - 61.0 °F 68% 30.18 in 10.0 mi Variable 3.5 mph - N/A   Clear
10:53 AM 75.0 °F - 59.0 °F 57% 30.17 in 10.0 mi West 5.8 mph - N/A   Clear
11:53 AM 77.0 °F - 60.1 °F 56% 30.18 in 10.0 mi SSW 6.9 mph - N/A   Clear
12:53 PM 79.0 °F - 61.0 °F 54% 30.16 in 10.0 mi South 8.1 mph - N/A   Clear
1:53 PM 79.0 °F - 60.1 °F 52% 30.16 in 10.0 mi South 6.9 mph - N/A   Scattered Clouds
2:53 PM 82.0 °F 82.4 °F 60.1 °F 47% 30.14 in 10.0 mi South 9.2 mph - N/A   Partly Cloudy
3:53 PM 81.0 °F 81.3 °F 59.0 °F 47% 30.12 in 10.0 mi South 9.2 mph - N/A   Scattered Clouds
4:53 PM 82.0 °F 82.4 °F 60.1 °F 47% 30.10 in 10.0 mi South 9.2 mph - N/A   Partly Cloudy
5:53 PM 82.0 °F 82.4 °F 60.1 °F 47% 30.09 in 10.0 mi SSE 11.5 mph - N/A   Partly Cloudy
6:53 PM 81.0 °F 81.3 °F 59.0 °F 47% 30.07 in 10.0 mi South 10.4 mph - N/A   Partly Cloudy
7:53 PM 78.1 °F - 60.1 °F 54% 30.06 in 10.0 mi South 5.8 mph - N/A   Clear
8:53 PM 75.0 °F - 61.0 °F 62% 30.06 in 10.0 mi South 4.6 mph - N/A   Clear
9:53 PM 73.0 °F - 62.1 °F 68% 30.07 in 10.0 mi SSE 8.1 mph - N/A   Clear
10:53 PM 70.0 °F - 61.0 °F 73% 30.07 in 10.0 mi South 5.8 mph - N/A   Clear
11:53 PM 66.9 °F - 61.0 °F 81% 30.10 in 10.0 mi South 3.5 mph - N/A   Clear